www.pogodaiklimat.ru

Погода и климат >> Архив погоды >> Аргентина >> Tartagal


ПОГОДА в Tartagal

  • Прогноз погоды в Tartagal
  • Монитор погоды в Tartagal
  • Климат города

АРХИВ ПОГОДЫ в Tartagal

Время (UTC), дата Ветер
(напр.,м/с)
 
Видим.   Явления Облачность Т
(С)
Тd
(С)
f
(%)
Тe
(С)
Тes
(С)
Комфортность P
(гПа)
Po
(гПа)
Тmin
(С)
Tmax
(С)
R
(мм)
R24
(мм)
S
(см)
06 6.11 Ю 3 10 км зарница 3/3 900 м
[Cb calv]
+23.0 +21.5 91 +31 +31 очень
душно
1007.2 957.9
09 6.11 ЮЗ 1 10 км 6/3 900 м
[Sc Ac As Ci fib]
+22.4 +21.2 93 +29 +29 очень
душно
1006.8 957.5
12 6.11 Ю 6 6000 м 10/10 450 м
[Frnb Ns]
+22.6 +21.1 91 +30 +30 очень
душно
1011.8 961.4 +22.0 +25.4
15 6.11 Ю 4 10 км в посл. час морось {дождь} 9/9 450 м
[Frnb]
+22.4 +21.8 96 +30 +31 очень
душно
1013.0 962.6
18 6.11 Ю 4 10 км {дождь} 8/8 600 м
[Cu med, cong]
+26.1 +20.5 71 +32 +35 очень
душно
1011.6 961.6 9
21 6.11 Ю 6 6000 м дождь 10/10 450 м
[Cb cap]
+23.6 +21.2 86 +30 +30 очень
душно
1012.6 962.2
00 7.11 Ю 3 10 км {дождь} 10/6 900 м
[Sc As op]
+21.0 +20.4 96 +27 +27 душно 1016.0 965.4 +20.4 +26.5 0.8
06 7.11 Ю 7 5000 м слабый дождь 10/8 240 м
[Frnb As op]
+18.6 +18.3 98 +19 +19 1017.4 967.1 7
09 7.11 Ю 3 5000 м слабая морось {дождь} 10/10 180 м
[Frnb]
+18.2 +17.9 98 +19 +19 1018.7 967.8
12 7.11 Ю 4 8000 м слабая морось 10/10 200 м
[Frnb]
+19.0 +18.4 96 +21 +21 комфорт 1020.7 969.8 22
15 7.11 Ю 3 10 км 10/6 600 м
[Sc Ac As]
+21.4 +18.2 82 +26 +28 душно 1020.7 969.8
18 7.11 Ю 3 10 км {морось} 9/6 600 м
[Cu Sc Ac As]
+23.6 +17.2 67 +27 +30 жарко 1018.6 967.5 0.0
21 7.11 ЮЗ 3 10 км 5/3 600 м
[Sc Ac As]
+24.0 +18.4 71 +28 +30 душно 1015.9 965.2
00 8.11 штиль 0 10 км 4/0
[Ac As]
+19.4 +17.9 91 +21 +21 комфорт 1016.7 965.8 +18.8 +24.8
06 8.11 штиль 0 10 км 6/0
[Ac As]
+18.6 +17.6 94 +20 +20 1014.7 964.0
09 8.11 штиль 0 10 км ясно +17.0 +16.0 94 +17 +17 1014.3 963.6
12 8.11 штиль 0 10 км ясно +24.6 +19.7 74 +30 +38 очень
душно
1014.6 964.2 +16.6 +24.6
15 8.11 Ю 3 10 км 9/9 900 м
[Cu Sc]
+26.2 +17.4 58 +30 +32 душно 1013.2 962.8
18 8.11 СВ 9 10 км 4/3 600 м
[Cu Sc Ac trans]
+29.2 +16.2 45 +32 +33 душно 1010.0 960.0
21 8.11 СВ 9 10 км 1/1 1050 м
[Sc]
+30.6 +14.4 37 +32 +33 жарко 1007.4 957.4
00 9.11 штиль 0 10 км ясно +23.2 +17.5 70 +29 +29 душно 1008.2 958.2 +23.0 +31.0
06 9.11 штиль 0 10 км ясно +18.8 +17.5 92 +20 +20 1007.8 957.8
09 9.11 штиль 0 10 км ясно +19.3 +17.2 88 +21 +21 комфорт 1007.2 957.5
12 9.11 С 4 10 км ясно +26.2 +18.1 61 +31 +35 очень
душно
1008.4 958.7 +18.2 +26.2
15 9.11 Ю 9 10 км 6/6 750 м
[Cu hum]
+31.6 +17.7 44 +36 +37 очень
душно
1006.7 957.4
18 9.11 СВ 7 10 км 8/6 750 м
[Cu Sc]
+33.6 +18.1 40 +38 +40 очень
душно
1004.7 972.0
21 9.11 СВ 3 10 км 9/3 750 м
[Cu hum Ac und]
+30.8 +20.1 53 +37 +38 очень
душно
1003.6 953.9
00 10.11 штиль 0 10 км 10/0
[Ac As]
+26.8 +23.6 83 +37 +37 очень
душно
1003.9 854.6 +26.2 +34.0
06 10.11 штиль 0 10 км 3/0
[Ac As]
+25.2 +22.3 84 +33 +33 очень
душно
1003.0 953.9
09 10.11 штиль 0 10 км 1/0
[Cs]
+22.6 +19.5 83 +29 +29 очень
душно
1001.9 953.0
12 10.11 С 6 10 км ясно +26.6 +20.1 68 +33 +35 очень
душно
1002.0 953.1 +22.4 +26.8
15 10.11 С 7 10 км ясно +31.8 +19.1 47 +37 +42 очень
душно
1000.7 952.1
18 10.11 С 8 10 км ясно +35.5 +16.3 32 +38 +41 очень
душно
997.2 949.0
21 10.11 С 6 10 км 6/0
[Ac trans]
+35.2 +16.6 33 +38 +39 очень
душно
996.0 947.4
00 11.11 штиль 0 10 км ясно +28.8 +20.8 62 +36 +36 очень
душно
997.2 948.3 +26.6 +36.6
06 11.11 С 4 10 км ясно +25.3 +20.3 74 +31 +31 очень
душно
996.6 948.3
12 11.11 С 4 10 км ясно +26.8 +21.8 74 +34 +38 очень
душно
999.6 950.6 +21.0 +28.8
15 11.11 СВ 4 10 км 3/3 750 м
[Cu hum]
+32.6 +22.8 56 +42 +52 опасность
перегрева
998.4 950.1
18 11.11 СВ 3 10 км 6/6 750 м
[Cu hum]
+35.9 +21.9 44 -4 -4 996.6 948.2
21 11.11 С 7 10 км 6/5 750 м
[Cu hum Ci]
+35.6 +21.0 43 +43 +43 опасность
перегрева
995.9 947.3
00 12.11 С 7 10 км 5/3 900 м
[Sc Ci]
+30.6 +21.8 59 +39 +39 очень
душно
997.5 948.9 +26.8 +36.6
06 12.11 С 3 10 км ясно +25.4 +21.2 78 +32 +32 очень
душно
997.0 948.6
09 12.11 С 3 10 км ясно +24.0 +21.6 86 +31 +31 очень
душно
996.6 947.9
12 12.11 штиль 0 10 км ясно +26.8 +21.5 73 +34 +42 очень
душно
997.9 949.3 +23.5 +30.6
15 12.11 штиль 0 10 км 4/4 750 м
[Cu med, cong]
+31.6 +22.6 59 +41 +57 опасность
перегрева
997.8 949.1
18 12.11 СВ 4 10 км 6/6 750 м
[Cu med, cong]
+34.6 +21.9 48 +43 +48 опасность
перегрева
995.4 957.1
21 12.11 СВ 4 10 км 9/4 900 м
[Cb calv As op]
+32.6 +22.2 54 +41 +42 опасность
перегрева
997.6 945.5
00 13.11 штиль 0 10 км гроза без осадков 10/8 900 м
[Cb cap Ac As]
+30.0 +22.7 65 +40 +40 очень
душно
996.7 948.1 +26.8 +35.0

 

Местоположение метеостанции Tartagal (Аргентина): широта -22.62 долгота -63.80 высота над уровнем моря 450 м.

В архиве по умолчанию представлена погода в Tartagal за последнюю неделю. Архивные данные за месяц целиком и за предыдущие месяцы, начиная с января 2011 года, Вы можете получить, выбрав интересующий диапазон дат из раскрывающегося списка и нажав кнопку "Ввод!".


*Определитесь, кто Вы:
робот инопланетянин человек

Внимание! Время в таблицах - всемирное. Для получения местного времени необходимо прибавить поправку, которая в Tartagal равна -3 ч.

Смотрите также архив погоды в соседних городах и на ближайших метеорологических станциях:

Погода в Bermejo (Боливия) (55 км)
Погода в Yacuiba (Боливия) (76 км)
Погода в San Ramon de la Nueva Oran (Аргентина) (79 км)
Погода в Tarija (Боливия) (151 км)
Погода в Villamontes (Боливия) (157 км)
Погода в La Quiaca (Аргентина) (194 км)
Погода в San Salvador de Jujuy (Аргентина) (235 км)
Погода в Prats-Gil (Парагвай) (236 км)
Погода в Camiri (Боливия) (293 км)
Погода в Salta (Аргентина) (301 км)

Пояснения к столбцам:

Ветер - указаны скорость ветра в м/с - средняя за 10 мин, порывы в срок и между сроками (в фигурных скобках) и направление, откуда дует ветер: С - северный, СВ - северо-восточный, В - восточный, ЮВ - юго-восточный, Ю - южный, ЮЗ - юго-западный, З - западный, СЗ - северо-западный.
Видимость - горизонтальная дальность видимости в метрах или километрах. При видимости от 1 до 10 км при отсутствии осадков обычно наблюдается дымка, при ухудшении видимости до 1 км и менее - туман. В сухую погоду видимость может ухудшаться дымом, пылью или мглою.
Явления - указаны атмосферные явления, наблюдавшиеся в срок или в последний час перед сроком; фигурными скобками обозначены явления, наблюдавшиеся между сроками (за 1-3 часа до срока); квадратными скобками обозначены град или гололедные отложения с указанием их диаметра в мм.
Облачность - указаны через наклонную черту общая и нижняя облачность в баллах и высота нижней границы облаков в метрах; квадратными скобками обозначены формы облаков: Ci - перистые, Cs - перисто-слоистые, Cc - перисто-кучевые, Ac - высококучевые, As - высокослоистые, Sc - слоисто-кучевые, Ns - слоисто-дождевые, Cu - кучевые, Cb - кучево-дождевые. Подробнее классификацию облаков см. в Атласе облаков (PDF).
T - Температура воздуха - температура, измеренная на высоте 2 м над землей.
Td - Температура точки росы - температура, при понижении до которой содержащийся в воздухе водяной пар достигнет насыщения.
f - Относительная влажность воздуха - влажноcть воздуха, измеренная на высоте 2 м над землей.
Te - Эффективная температура - температура, которую ощущает одетый по сезону человек в тени. Характеристика душности погоды. При расчете учитывается влияние влажности воздуха и скорости ветра на теплоощущения человека.
Tes - Эффективная температура на солнце - температура, которую ощущает человек, с поправкой на солнечный нагрев. Характеристика знойности погоды. Зависит от высоты солнца над горизонтом, облачности и скорости ветра. Ночью, в пасмурную погоду, а также при ветре 12 м/с и более поправка равна нулю.
P - Атмосферное давление - приведенное к уровню моря атмосферное давление.
Po - Атмосферное давление - измеренное на уровне метеостанции атмосферное давление.
Tmin - Минимальная температура - минимум температуры воздуха на высоте 2 м над землей.
Tmax - Максимальная температура - максимум температуры воздуха на высоте 2 м над землей.
R - Количество осадков - Количество выпавших осадков за период времени, мм. При наведении курсора мыши на число - период времени, за который выпало указанное количество осадков.
R24 - Количество осадков - Количество выпавших осадков за 24 часа, мм.
S - Снежный покров - Высота снежного покрова, см. При наведении курсора мыши на число - состояние снежного покрова и степень покрытия местности в баллах.